Weather History for Bullhead City, AZ

Change the Weather History Date:

Tuesday, January 1, 2013

  Actual Average Record
Temperature  
Mean Temperature 42 °F -  
Max Temperature 50 °F 62 °F 71 °F (1998)
Min Temperature 35 °F 46 °F 27 °F (1989)
Degree Days  
Heating Degree Days 22    
Moisture  
Dew Point 17 °F    
Average Humidity 36    
Maximum Humidity 56    
Minimum Humidity 22    
Precipitation  
Precipitation 0.00 in - - ()
Sea Level Pressure  
Sea Level Pressure 30.28 in    
Wind  
Wind Speed 14 mph (North)    
Max Wind Speed 33 mph    
Max Gust Speed 40 mph    
Visibility 10 miles    
Events      
Averages and records for this station are not official NWS values.
T = Trace of Precipitation, MM = Missing Value Source: NWS Daily Summary

Daily Weather History Graph

Daily Weather History Graph

Search for Another Location

Airport:

Trip Planner

Search our weather history database for the weather conditions in past years. The results will help you decide how hot, cold, wet, or windy it might be!

Date:

Astronomy

Jan. 01, 2013 Rise Set
Actual Time 7:46 AM MST 5:37 PM MST
Civil Twilight 7:18 AM MST 6:05 PM MST
Nautical Twilight 6:47 AM MST 6:37 PM MST
Astronomical Twilight 6:16 AM MST 7:08 PM MST
Moon 10:01 PM MST (1/1) 10:10 AM MST (1/1)
Length of Visible Light 10h 46m
Length of Day
9h 50m
Waning Gibbous, 83% of the Moon is Illuminated
Jan 1
Waning Gibbous
Jan 4
Last Quarter
Jan 11
New
Jan 18
First Quarter
Jan 26
Full

Hourly Weather History & Observations

Time (MST) Temp. Windchill Dew Point Humidity Pressure Visibility Wind Dir Wind Speed Gust Speed Precip Events Conditions
12:15 AM 37.4 °F 32.8 °F 19.4 °F 48% 30.27 in 10.0 mi ENE 5.8 mph - N/A   Clear
12:35 AM 37.4 °F 33.8 °F 19.4 °F 48% 30.27 in 10.0 mi NE 4.6 mph - N/A   Clear
12:55 AM 37.4 °F - 19.4 °F 48% 30.27 in 10.0 mi Calm Calm - N/A   Clear
1:15 AM 35.6 °F 32.8 °F 19.4 °F 52% 30.27 in 10.0 mi ESE 3.5 mph - N/A   Clear
1:35 AM 39.2 °F 37.0 °F 19.4 °F 45% 30.28 in 10.0 mi NE 3.5 mph - N/A   Clear
1:55 AM 35.6 °F 31.7 °F 19.4 °F 52% 30.28 in 10.0 mi North 4.6 mph - N/A   Clear
2:15 AM 39.2 °F 35.0 °F 19.4 °F 45% 30.28 in 10.0 mi North 5.8 mph - N/A   Clear
2:35 AM 37.4 °F 33.8 °F 19.4 °F 48% 30.29 in 10.0 mi North 4.6 mph - N/A   Clear
2:55 AM 39.2 °F 37.0 °F 19.4 °F 45% 30.30 in 10.0 mi NNW 3.5 mph - N/A   Clear
3:15 AM 37.4 °F 32.8 °F 23.0 °F 56% 30.30 in 10.0 mi North 5.8 mph - N/A   Clear
3:35 AM 39.2 °F 35.0 °F 21.2 °F 49% 30.30 in 10.0 mi North 5.8 mph - N/A   Clear
3:55 AM 39.2 °F 35.9 °F 24.8 °F 56% 30.29 in 10.0 mi North 4.6 mph - N/A   Clear
4:15 AM 39.2 °F 34.2 °F 21.2 °F 49% 30.29 in 10.0 mi NNE 6.9 mph - N/A   Clear
4:35 AM 39.2 °F 33.6 °F 21.2 °F 49% 30.29 in 10.0 mi NNE 8.1 mph - N/A   Clear
5:15 AM 41.0 °F 33.9 °F 21.2 °F 45% 30.30 in 10.0 mi NNE 12.7 mph - N/A   Clear
5:35 AM 41.0 °F 33.5 °F 23.0 °F 49% 30.30 in 10.0 mi NNE 13.8 mph - N/A   Clear
5:55 AM 41.0 °F 33.9 °F 23.0 °F 49% 30.30 in 10.0 mi NE 12.7 mph - N/A   Clear
6:15 AM 39.2 °F 31.6 °F 23.0 °F 52% 30.30 in 10.0 mi NE 12.7 mph - N/A   Clear
6:35 AM 39.2 °F 32.0 °F 23.0 °F 52% 30.30 in 10.0 mi NE 11.5 mph - N/A   Clear
6:55 AM 39.2 °F 30.8 °F 23.0 °F 52% 30.30 in 10.0 mi NNE 15.0 mph - N/A   Clear
7:15 AM 41.0 °F 32.2 °F 21.2 °F 45% 30.30 in 10.0 mi North 18.4 mph - N/A   Clear
7:35 AM 41.0 °F 32.2 °F 21.2 °F 45% 30.30 in 10.0 mi North 18.4 mph - N/A   Clear
7:55 AM 41.0 °F 31.9 °F 21.2 °F 45% 30.31 in 10.0 mi North 19.6 mph - N/A   Clear
8:15 AM 41.0 °F 32.8 °F 21.2 °F 45% 30.32 in 10.0 mi NNE 16.1 mph - N/A   Clear
8:35 AM 41.0 °F 32.8 °F 21.2 °F 45% 30.33 in 10.0 mi NNE 16.1 mph - N/A   Clear
9:15 AM 41.0 °F 31.9 °F 19.4 °F 42% 30.34 in 10.0 mi North 19.6 mph 24.2 mph N/A   Clear
9:35 AM 41.0 °F 32.2 °F 21.2 °F 45% 30.35 in 10.0 mi North 18.4 mph 21.9 mph N/A   Clear
9:55 AM 44.6 °F 36.1 °F 19.4 °F 37% 30.34 in 10.0 mi North 21.9 mph 27.6 mph N/A   Clear
10:15 AM 44.6 °F 36.9 °F 19.4 °F 37% 30.35 in 10.0 mi North 18.4 mph 25.3 mph N/A   Clear
10:35 AM 44.6 °F 36.4 °F 19.4 °F 37% 30.35 in 10.0 mi North 20.7 mph 29.9 mph N/A   Clear
11:15 AM 44.6 °F 35.3 °F 15.8 °F 31% 30.34 in 10.0 mi North 26.5 mph 32.2 mph N/A   Clear
11:35 AM 46.4 °F 36.9 °F 15.8 °F 29% 30.31 in 10.0 mi North 32.2 mph 39.1 mph N/A   Clear
11:55 AM 46.4 °F 36.9 °F 15.8 °F 29% 30.30 in 10.0 mi North 32.2 mph 40.3 mph N/A   Clear
12:15 PM 46.4 °F 37.5 °F 14.0 °F 27% 30.30 in 10.0 mi NNW 27.6 mph 39.1 mph N/A   Clear
12:35 PM 48.2 °F - 15.8 °F 27% 30.29 in 10.0 mi NNW 28.8 mph 38.0 mph N/A   Clear
12:55 PM 48.2 °F - 15.8 °F 27% 30.28 in 10.0 mi NNW 24.2 mph 33.4 mph N/A   Clear
1:15 PM 48.2 °F - 15.8 °F 27% 30.27 in 10.0 mi NNW 31.1 mph 38.0 mph N/A   Clear
1:35 PM 50.0 °F - 14.0 °F 24% 30.26 in 10.0 mi NNW 32.2 mph 39.1 mph N/A   Clear
1:55 PM 50.0 °F - 14.0 °F 24% 30.25 in 10.0 mi NNW 33.4 mph 40.3 mph N/A   Clear
2:15 PM 50.0 °F - 14.0 °F 24% 30.25 in 10.0 mi NNW 27.6 mph 36.8 mph N/A   Clear
2:35 PM 50.0 °F - 15.8 °F 26% 30.24 in 10.0 mi NNW 31.1 mph 38.0 mph N/A   Clear
2:55 PM 50.0 °F - 14.0 °F 24% 30.25 in 10.0 mi NNW 24.2 mph 32.2 mph N/A   Clear
3:15 PM 50.0 °F - 14.0 °F 24% 30.24 in 10.0 mi North 26.5 mph 36.8 mph N/A   Clear
3:35 PM 50.0 °F - 14.0 °F 24% 30.24 in 10.0 mi NNW 27.6 mph 33.4 mph N/A   Clear
3:55 PM 50.0 °F - 14.0 °F 24% 30.23 in 10.0 mi North 26.5 mph 32.2 mph N/A   Clear
4:15 PM 50.0 °F - 14.0 °F 24% 30.23 in 10.0 mi NNW 26.5 mph 34.5 mph N/A   Clear
4:35 PM 50.0 °F - 14.0 °F 24% 30.23 in 10.0 mi NNW 26.5 mph 33.4 mph N/A   Clear
4:55 PM 50.0 °F - 14.0 °F 24% 30.24 in 10.0 mi NNW 23.0 mph 31.1 mph N/A   Clear
5:15 PM 50.0 °F - 14.0 °F 24% 30.23 in 10.0 mi North 25.3 mph 29.9 mph N/A   Clear
5:35 PM 50.0 °F - 14.0 °F 24% 30.23 in 10.0 mi North 25.3 mph 29.9 mph N/A   Clear
5:55 PM 48.2 °F - 12.2 °F 24% 30.24 in 10.0 mi North 19.6 mph 26.5 mph N/A   Clear
6:15 PM 48.2 °F - 10.4 °F 22% 30.24 in 10.0 mi North 21.9 mph 28.8 mph N/A   Clear
6:35 PM 48.2 °F - 12.2 °F 24% 30.24 in 10.0 mi North 24.2 mph 29.9 mph N/A   Clear
6:55 PM 48.2 °F - 12.2 °F 24% 30.24 in 10.0 mi North 21.9 mph 28.8 mph N/A   Clear
7:15 PM 48.2 °F - 12.2 °F 24% 30.25 in 10.0 mi North 18.4 mph 24.2 mph N/A   Clear
7:35 PM 48.2 °F - 14.0 °F 25% 30.25 in 10.0 mi North 17.3 mph - N/A   Clear
7:55 PM 46.4 °F 39.5 °F 14.0 °F 27% 30.25 in 10.0 mi North 17.3 mph - N/A   Clear
8:15 PM 46.4 °F 39.5 °F 14.0 °F 27% 30.26 in 10.0 mi NNE 17.3 mph - N/A   Clear
8:35 PM 46.4 °F 39.8 °F 14.0 °F 27% 30.26 in 10.0 mi North 16.1 mph - N/A   Clear
8:55 PM 46.4 °F 39.8 °F 15.8 °F 29% 30.26 in 10.0 mi NNE 16.1 mph - N/A   Clear
9:35 PM 46.4 °F 39.5 °F 15.8 °F 29% 30.27 in 10.0 mi North 17.3 mph - N/A   Clear
9:55 PM 46.4 °F 39.2 °F 17.6 °F 32% 30.28 in 10.0 mi North 18.4 mph - N/A   Clear
10:15 PM 46.4 °F 39.5 °F 15.8 °F 29% 30.28 in 10.0 mi North 17.3 mph - N/A   Clear
10:35 PM 46.4 °F 39.5 °F 17.6 °F 32% 30.29 in 10.0 mi North 17.3 mph - N/A   Clear
10:55 PM 46.4 °F 40.1 °F 17.6 °F 32% 30.30 in 10.0 mi North 15.0 mph - N/A   Clear
11:15 PM 46.4 °F 39.2 °F 17.6 °F 32% 30.29 in 10.0 mi North 18.4 mph 23.0 mph N/A   Clear
11:35 PM 46.4 °F 39.2 °F 17.6 °F 32% 30.29 in 10.0 mi North 18.4 mph 24.2 mph N/A   Clear
11:55 PM 46.4 °F 39.2 °F 17.6 °F 32% 30.29 in 10.0 mi North 18.4 mph 26.5 mph N/A   Clear